User: anonymous   Login
Location: Unspecified
(0.0000°N, 0.0000°E)
Time: 12:30:20
(UTC+00:00)
Language:

Prospero - Orbit

View from above orbital plane
View from above orbital plane
View from above satellite
View from above satellite

Ground track
Ground track

The orbit data is extracted from the following two-line orbital elements,

1  5580U 71093A   18020.75421233 +.00000181 +00000-0 +38419-4 0  9995
2  5580 082.0411 081.5084 0528642 315.6645 040.3299 13.94294158320186
Epoch (UTC): 20 January 2018 18:06:03
Eccentricity: 0.0528642
inclination: 82.0411°
perigee height: 528 km
apogee height: 1299 km
right ascension of ascending node: 81.5084°
argument of perigee: 315.6645°
revolutions per day: 13.94294158
mean anomaly at epoch: 40.3299°
orbit number at epoch: 32018

The dashed part of the orbit path shows where the satellite is in the earth's shadow,  

DLR